GEFSSGP_con_cape1000_066.txt.gz
Probability
0 0 0 0 0 0 0 0 0 0 0 0 0 0 0 0 0 0 0 0 0 39 87 97 94 90 90 94 90 97 100 97 100 100 100 100 100 100 100 100 100 100 94 94 90 87 84 84 87
0 0 0 0 0 0 0 0 0 0 0 0 0 0 0 6 6 3 3 3 6 65 84 90 94 90 94 97 97 100 100 100 100 100 100 100 100 100 100 100 100 97 90 84 74 68 68 74 74
0 0 0 0 0 0 0 0 0 0 0 0 0 0 0 13 19 3 3 0 35 71 84 94 94 94 97 97 97 100 100 100 100 97 97 97 94 97 97 94 90 87 84 71 68 61 58 61 61
0 0 0 0 0 0 0 0 0 0 0 0 0 0 0 29 29 10 6 19 58 81 87 94 100 94 97 97 97 100 100 100 100 100 97 97 94 94 90 84 84 77 77 71 71 71 65 61 52
0 0 0 0 0 0 0 0 0 0 0 0 0 0 0 65 48 16 13 32 68 87 90 97 100 100 100 100 100 100 100 100 100 100 100 100 100 100 97 97 90 87 87 77 74 74 68 71 68
0 0 0 0 0 0 0 0 0 0 0 0 0 0 6 52 45 29 26 45 77 87 90 100 100 100 100 100 100 100 100 100 100 100 100 100 100 100 100 100 97 100 100 97 97 94 94 94 87
0 0 0 0 0 0 0 0 0 0 0 0 0 0 16 58 55 45 32 48 84 94 97 100 100 100 100 100 100 100 100 100 100 100 100 100 100 100 100 100 100 100 100 100 100 97 97 97 97
0 0 0 0 0 0 0 0 0 0 0 0 0 0 6 58 61 48 42 52 87 94 97 100 100 100 100 100 100 100 100 100 100 100 100 100 100 100 100 100 100 100 100 100 100 100 100 100 100
0 0 0 0 0 0 0 0 0 0 0 0 3 0 6 68 55 52 42 61 81 97 97 97 100 100 100 100 100 100 100 100 100 100 100 100 100 100 100 100 100 100 100 100 100 100 100 100 100
0 0 0 0 0 0 0 0 0 0 0 0 0 10 45 77 58 48 52 61 71 81 97 97 100 100 100 100 100 100 100 100 100 100 100 100 100 100 100 100 100 100 100 100 100 100 100 100 97
0 0 0 0 0 0 0 0 0 0 0 0 0 13 58 71 68 55 42 35 39 71 81 94 97 97 97 100 90 100 100 100 100 100 100 100 100 100 100 100 100 100 97 97 100 100 97 97 97
0 0 0 0 0 0 0 0 0 0 0 0 0 16 48 71 68 68 68 65 61 48 61 68 87 87 84 84 77 74 90 100 100 100 100 100 100 100 100 97 97 97 94 90 90 94 97 94 94
0 0 0 0 0 0 0 0 0 0 0 0 6 19 35 35 45 58 55 65 61 58 58 52 55 71 71 71 61 65 71 77 90 90 90 90 94 90 87 84 74 84 74 77 87 87 90 94 94
0 0 0 0 0 0 0 0 0 0 0 3 10 10 16 32 29 39 55 58 58 48 42 39 39 45 48 48 48 52 58 68 71 81 84 87 87 87 81 77 65 58 58 65 71 77 84 77 81
0 0 0 0 0 0 0 3 3 0 6 10 13 13 10 16 23 29 42 45 39 39 35 35 35 35 32 39 42 48 42 42 58 68 74 81 77 77 71 58 45 39 39 29 39 48 48 61 58
0 0 0 0 0 0 0 3 3 0 6 10 13 16 13 19 23 19 19 19 23 23 23 26 29 26 32 35 35 29 35 48 48 48 55 65 65 65 52 45 39 29 26 23 19 19 19 29 26
0 0 0 0 0 0 3 3 3 3 13 19 19 19 19 13 10 13 13 16 19 23 16 16 13 16 16 19 23 23 23 35 42 35 42 45 52 55 35 26 26 19 13 13 16 10 6 6 10
0 0 0 0 3 3 10 16 19 19 16 26 23 23 23 13 10 13 16 10 10 13 13 19 10 10 10 13 10 10 19 26 26 29 26 29 26 23 16 19 16 16 16 3 3 3 0 0 0
0 0 0 3 6 10 16 19 16 13 19 16 16 13 13 6 6 3 3 10 3 6 3 3 3 3 6 6 6 10 10 6 3 10 10 10 3 6 6 13 13 6 10 3 0 0 0 0 0
0 0 3 6 6 13 13 13 16 13 16 16 13 16 10 3 0 6 6 3 0 3 3 3 6 3 3 3 3 3 3 0 0 0 3 3 3 6 10 6 13 10 6 3 3 3 0 0 0
0 0 0 6 6 3 3 6 10 13 6 13 3 6 0 3 0 3 6 6 3 3 3 3 3 0 0 0 0 0 0 0 0 0 0 3 6 6 3 3 10 3 3 6 3 0 0 0 0
0 0 0 3 0 0 0 0 3 10 3 0 3 0 3 3 3 0 0 0 3 3 3 3 0 0 0 0 0 0 0 0 0 0 0 0 0 0 3 3 3 3 3 3 0 0 0 0 0
0 0 0 0 0 0 0 0 0 0 3 0 0 3 0 0 3 0 0 0 0 0 0 0 0 0 0 0 0 0 0 0 0 0 0 0 0 0 0 0 0 0 0 0 0 0 0 0 0
0 0 0 0 0 0 0 0 0 0 0 0 0 3 3 0 3 0 0 0 0 0 0 0 0 0 0 0 0 0 0 0 0 0 0 0 0 0 0 0 0 0 0 0 0 0 0 0 0
0 0 0 0 0 0 0 0 0 0 0 0 0 0 0 0 0 0 0 0 0 0 0 0 0 0 0 0 0 0 0 0 0 0 0 0 0 0 0 0 0 0 0 0 0 0 0 0 0
0 0 0 0 0 0 0 0 0 0 0 0 0 0 0 0 0 0 0 0 0 0 0 0 0 0 0 0 0 0 0 0 0 0 0 0 0 0 0 0 0 0 0 0 0 0 0 0 0
0 0 0 0 0 0 0 0 0 0 0 0 0 0 0 0 0 0 0 0 0 0 0 0 0 0 0 0 0 0 0 0 0 0 0 0 0 0 0 0 0 0 0 0 0 0 0 0 0
0 0 0 0 0 0 0 0 0 0 0 0 0 0 0 0 0 0 0 0 0 0 0 0 0 0 0 0 0 0 0 0 0 0 0 0 0 0 0 0 0 0 0 0 0 0 0 0 0
0 0 0 0 0 0 0 0 0 0 0 0 0 0 0 0 0 0 0 0 0 0 0 0 0 0 0 0 0 0 0 0 0 0 0 0 0 0 0 0 0 0 0 0 0 0 0 0 0
0 0 0 0 0 0 0 0 0 0 0 0 0 0 0 0 0 0 0 0 0 0 0 0 0 0 0 0 0 0 0 0 0 0 0 0 0 0 0 0 0 0 0 0 0 0 0 0 0

GEFSSGP_con_cape1000_072.txt.gz
Probability
13 13 6 6 58 61 10 0 0 0 0 0 0 0 0 0 0 29 81 32 19 32 87 97 97 97 97 100 100 100 100 100 100 100 100 100 100 100 97 100 100 100 90 90 90 81 84 87 87
16 3 3 35 58 6 0 0 0 0 0 0 0 0 0 13 45 65 55 35 26 55 87 94 97 97 97 100 100 100 100 100 100 100 100 100 100 97 100 100 97 94 84 84 77 74 65 81 87
3 3 16 39 32 3 0 0 0 0 0 0 0 3 3 23 55 52 52 35 35 71 94 97 97 97 97 100 100 100 100 100 100 100 100 100 100 100 100 94 94 87 84 77 65 61 55 61 81
3 3 6 16 0 0 0 0 0 0 0 0 0 0 16 71 42 42 52 32 45 74 90 97 97 97 100 100 100 100 100 100 100 100 100 100 100 100 97 90 87 84 84 74 65 52 52 58 65
0 0 0 0 0 0 0 0 0 0 0 0 0 0 29 81 58 45 58 35 58 48 74 97 97 100 100 100 100 100 100 100 100 100 100 100 100 97 87 84 84 84 84 77 81 74 68 68 61
0 0 0 0 0 0 0 0 0 0 0 0 0 0 58 87 68 52 52 48 32 35 58 97 100 100 100 100 100 100 100 100 100 100 97 97 97 97 94 94 90 87 87 87 87 81 81 87 87
0 0 0 0 0 0 0 0 0 0 0 0 0 3 68 87 90 68 74 58 19 19 61 100 100 100 100 100 100 100 100 100 100 100 100 100 97 100 100 100 97 97 100 100 100 97 97 97 94
0 0 0 0 0 0 0 0 0 0 0 0 0 10 48 97 97 94 77 65 48 48 65 97 100 100 100 100 100 100 100 100 100 100 100 100 100 100 100 100 100 100 100 100 100 100 100 100 100
0 0 0 0 0 0 0 0 0 0 0 16 32 48 65 100 97 100 100 90 90 81 90 97 100 100 100 100 100 100 97 100 100 100 100 100 97 71 100 97 100 100 100 100 100 100 100 100 100
0 0 0 0 0 0 0 0 0 0 3 23 48 87 94 100 100 100 100 100 100 100 100 100 100 100 97 87 100 100 97 97 100 100 100 100 100 100 94 97 100 100 100 100 100 100 100 100 100
0 0 0 0 0 0 0 0 0 0 3 16 55 87 94 94 100 97 97 97 97 100 100 100 100 100 97 97 97 97 97 97 97 97 100 100 100 100 97 94 100 100 100 100 100 100 100 100 100
0 0 0 0 0 0 0 0 3 10 19 29 48 74 90 94 94 97 97 97 97 97 100 100 100 100 97 97 94 94 94 94 94 94 97 100 100 100 100 100 100 100 100 100 100 100 100 97 94
0 0 0 0 0 0 0 0 3 6 35 52 52 74 87 87 87 94 94 94 97 97 97 97 94 90 90 94 94 87 87 84 81 97 90 90 90 97 97 97 100 100 94 97 97 94 97 97 94
0 0 0 0 0 0 0 0 3 26 32 61 68 77 84 87 84 94 94 94 90 94 94 87 87 94 94 94 94 87 77 81 74 77 81 87 87 87 90 94 97 94 94 90 94 87 90 94 94
0 0 0 0 0 0 0 3 19 32 48 68 68 68 74 74 81 81 87 90 87 90 87 84 84 84 87 94 84 74 71 68 71 68 61 68 81 84 87 87 90 97 87 84 90 77 84 87 87
0 0 0 0 0 0 0 0 16 39 55 68 65 58 71 68 68 71 71 84 87 90 87 87 68 74 81 81 84 65 61 61 55 48 48 52 61 58 71 71 77 77 84 84 84 81 81 84 77
0 0 0 0 0 0 0 16 29 48 65 71 71 68 71 65 58 61 61 71 77 87 87 87 74 65 58 61 71 65 71 68 52 42 42 52 45 52 52 61 68 74 71 58 52 55 68 74 74
0 0 3 3 13 3 6 32 45 61 61 65 58 61 58 48 52 55 58 55 55 61 65 68 61 65 58 58 58 58 48 45 32 35 45 42 42 35 45 48 45 48 52 52 55 52 65 61 58
0 0 3 3 19 23 26 45 55 52 58 61 61 61 61 52 32 45 48 48 42 52 58 58 65 61 58 52 48 55 32 42 35 35 29 32 29 29 39 29 39 48 39 39 23 23 29 39 45
0 0 3 13 29 29 48 48 55 55 42 45 55 52 52 45 32 35 45 35 42 42 45 42 42 45 48 48 61 52 45 39 35 26 29 23 16 16 19 32 26 35 48 29 29 39 29 26 19
0 0 3 19 29 29 32 55 61 52 45 45 45 48 42 35 29 19 26 32 29 29 29 16 35 29 32 29 35 42 42 42 26 29 23 13 6 16 26 23 29 32 26 29 39 45 35 29 16
0 0 3 13 16 6 13 0 61 58 45 42 39 39 29 19 16 16 16 16 13 16 13 26 26 26 23 23 29 29 26 23 19 19 16 13 10 3 13 13 16 26 26 32 29 19 26 39 23
0 3 6 6 3 0 3 0 26 35 58 45 32 23 19 19 16 16 19 10 13 10 10 13 19 19 19 19 19 19 13 10 6 10 10 6 3 3 3 10 16 16 23 19 23 26 32 35 29
0 6 6 0 0 0 0 0 13 39 52 32 29 19 19 13 13 16 13 10 6 6 6 10 13 16 16 16 16 16 16 13 13 10 10 10 6 6 0 3 6 13 16 19 29 29 35 42 39
0 0 0 0 0 0 0 0 26 39 26 19 13 19 16 13 10 10 6 6 6 6 6 6 10 13 6 3 13 10 13 13 10 3 3 6 3 0 0 0 0 3 3 6 16 26 29 39 39
0 0 0 0 0 0 0 0 39 26 23 13 13 16 13 10 10 6 6 6 6 3 6 3 6 13 3 3 3 3 3 3 3 0 0 0 0 0 0 0 0 0 0 0 3 10 19 26 35
0 0 0 0 0 0 0 13 26 23 6 3 3 10 10 10 6 6 3 0 0 0 0 0 3 6 6 3 0 0 0 0 0 0 0 0 0 0 0 0 0 0 0 0 0 3 3 10 19
0 0 0 0 0 0 0 0 6 16 13 10 3 3 6 6 3 0 0 0 0 0 0 0 0 3 3 0 0 0 0 0 0 0 0 0 0 0 0 0 0 0 0 0 0 0 0 0 6
0 0 0 0 0 0 0 0 6 13 13 3 3 3 3 3 0 0 0 0 0 0 0 0 0 0 0 0 0 0 0 0 0 0 0 0 0 0 0 0 0 0 0 0 0 0 0 0 0
0 0 0 0 0 0 0 0 0 6 3 3 3 0 0 0 0 0 0 0 0 0 0 0 0 0 0 0 0 0 0 0 0 0 0 0 0 0 0 0 0 0 0 0 0 0 0 0 0

GEFSSGP_con_cape1000_078.txt.gz
Probability
16 16 19 29 61 65 26 3 0 0 0 0 0 0 6 3 35 81 65 29 81 87 94 100 100 100 100 100 100 100 100 100 100 100 100 100 100 100 97 100 97 94 94 94 90 90 90 87 90
16 19 26 55 71 42 6 0 0 0 0 0 0 0 3 10 13 61 48 65 94 94 94 100 100 100 100 100 100 100 100 100 100 100 100 100 100 100 97 100 97 94 87 81 77 81 87 84 90
19 29 39 71 87 29 0 0 0 0 0 0 0 0 0 3 23 74 52 71 97 94 90 100 100 100 100 100 100 100 100 100 100 100 100 100 100 100 100 94 94 87 77 71 65 65 68 74 77
32 26 32 71 55 13 0 0 0 0 0 0 0 10 39 19 29 58 35 74 97 84 94 100 100 100 100 100 100 100 100 100 100 100 100 100 100 100 100 90 90 84 77 65 61 61 61 65 68
32 29 48 42 23 3 0 0 0 0 0 0 3 29 48 23 39 39 32 71 81 87 100 100 100 100 100 100 100 100 100 100 100 100 100 100 100 100 97 87 84 81 77 77 71 58 65 61 65
23 19 13 3 0 0 0 0 0 0 0 0 6 26 55 32 29 19 32 58 65 90 100 100 100 100 100 100 100 100 100 100 100 100 100 100 100 100 97 90 84 81 81 81 77 77 77 77 77
13 10 6 0 0 0 0 0 0 0 0 0 6 35 52 45 29 32 42 45 61 97 100 100 100 100 100 100 100 100 100 100 100 100 100 100 100 100 100 97 94 90 87 90 90 90 94 94 94
3 0 0 0 0 0 0 0 0 0 0 6 10 48 61 68 48 39 29 32 58 94 100 100 100 100 100 100 100 100 100 100 100 100 100 100 100 100 100 100 100 97 97 97 100 100 100 97 97
0 0 0 0 0 0 0 0 0 0 3 10 29 68 58 65 55 45 45 35 77 97 100 100 100 100 100 100 100 100 100 100 100 100 100 100 100 100 100 100 100 100 100 100 100 100 100 100 100
0 0 0 0 0 0 0 0 0 0 6 16 42 65 84 68 77 87 81 58 81 97 100 100 100 100 100 100 100 100 100 100 100 100 100 100 100 100 97 100 100 100 100 100 100 100 100 100 100
0 0 0 0 0 0 0 0 0 0 16 35 52 74 74 84 94 90 94 97 100 100 100 100 100 100 100 100 100 100 100 100 100 100 100 100 100 100 100 97 100 100 100 100 100 100 100 97 84
0 0 0 0 0 0 0 0 3 6 16 35 55 77 71 94 94 97 97 97 100 100 100 97 100 100 100 100 100 97 97 97 97 97 97 97 100 100 100 100 100 100 94 94 94 97 97 94 87
0 0 0 0 0 0 0 0 3 10 19 35 61 74 81 97 100 100 97 97 100 100 100 100 100 100 100 97 97 97 97 97 97 97 97 97 100 100 97 100 100 94 90 90 87 87 90 94 90
0 0 0 0 0 0 0 0 3 16 26 52 74 77 84 97 100 90 87 90 97 97 100 100 100 97 97 97 97 97 97 97 94 94 100 90 94 94 97 94 94 97 84 81 81 84 81 81 84
0 0 0 0 0 0 0 6 13 16 35 65 84 84 90 94 94 90 90 94 94 94 97 97 97 94 97 97 97 97 97 84 84 81 84 81 74 81 77 74 77 77 77 81 77 77 81 74 77
0 0 0 0 0 0 0 6 16 23 52 71 87 84 97 97 94 94 90 94 97 97 97 97 87 90 94 100 100 97 97 94 90 87 87 71 65 58 61 65 65 65 55 58 68 68 68 65 68
0 0 0 0 0 0 0 13 26 26 48 74 81 87 90 94 94 97 94 90 90 90 90 97 94 94 97 90 94 94 87 87 90 84 77 68 65 52 55 55 48 45 48 52 35 52 48 55 58
0 0 0 0 0 0 6 29 35 29 55 68 71 77 87 84 84 84 87 87 90 90 97 97 97 97 94 90 97 90 84 77 84 71 68 68 61 55 42 42 39 35 35 35 29 35 45 45 55
0 0 0 0 0 0 3 16 35 42 58 71 77 77 81 74 74 71 71 74 74 81 87 87 90 94 94 90 74 77 74 77 77 68 61 58 45 39 42 42 48 29 23 26 23 32 32 32 48
0 0 0 0 0 3 6 16 29 42 55 71 81 77 77 77 58 58 58 58 61 61 58 74 65 58 71 81 81 77 71 74 68 65 58 55 42 39 29 32 32 29 26 26 26 32 29 29 32
0 0 0 0 0 0 6 13 32 48 55 61 74 68 65 65 58 48 42 35 35 35 39 32 58 58 55 55 55 48 58 55 58 48 39 26 23 26 26 26 32 23 26 23 19 29 26 19 29
0 0 0 0 0 0 0 6 32 32 45 45 58 65 55 48 45 35 32 32 26 26 23 35 42 42 35 52 48 42 29 29 35 42 35 19 19 19 16 23 19 23 23 19 13 13 23 23 16
0 0 0 0 0 0 0 0 10 19 35 42 52 48 39 26 19 23 19 13 13 6 16 23 35 35 39 35 39 42 32 19 16 19 16 19 10 6 0 6 3 10 10 10 10 13 10 16 13
0 0 0 0 0 0 0 0 6 10 26 32 39 26 19 10 10 13 10 10 13 13 13 13 26 42 45 39 39 32 39 32 26 19 13 16 16 10 3 0 6 0 0 3 13 13 13 16 19
0 0 0 0 3 0 0 0 6 6 13 19 19 19 3 3 6 6 10 10 16 16 19 23 23 23 23 23 29 19 29 32 29 13 10 6 3 3 6 0 6 6 6 6 6 10 16 16 19
0 0 3 0 0 0 0 3 10 6 6 6 16 16 6 3 6 10 6 6 6 6 6 6 19 13 16 16 29 23 19 13 3 3 3 0 0 0 3 0 6 10 6 0 3 3 3 6 13
0 0 0 0 0 0 0 6 0 3 3 3 10 10 13 10 6 6 6 3 3 0 0 0 3 6 13 10 16 19 16 16 6 3 0 0 0 0 0 0 0 0 0 0 0 0 0 0 0
0 0 0 0 3 0 0 0 10 6 3 3 3 3 3 3 3 3 0 0 0 0 3 0 0 0 0 0 3 0 3 3 3 3 3 3 6 3 3 0 0 0 0 0 0 0 0 0 0
0 0 0 0 3 0 0 0 3 3 3 3 0 3 3 3 3 0 3 0 0 0 0 0 0 0 0 0 0 0 0 3 3 0 0 0 0 3 3 0 0 0 0 0 0 0 0 0 0
0 0 0 0 0 0 0 0 0 0 0 0 3 3 0 0 0 0 0 0 0 0 0 0 0 0 0 0 0 0 0 0 0 0 0 0 0 0 0 0 0 0 0 0 0 0 0 0 0

GEFSSGP_con_cape1000_084.txt.gz
Probability
45 23 16 10 10 6 13 0 3 3 0 0 0 16 48 65 61 45 13 23 45 97 100 100 100 100 100 100 100 100 100 100 100 100 100 100 100 100 100 100 100 100 97 97 97 97 97 97 97
16 16 16 10 0 10 6 6 3 0 0 0 0 13 23 48 74 61 32 23 61 97 100 100 100 100 100 100 100 100 100 100 100 100 100 100 100 100 100 100 100 97 97 97 97 97 94 94 97
16 13 16 10 16 23 10 6 0 0 0 0 3 3 3 52 77 71 48 48 77 97 100 100 100 100 100 100 100 100 100 100 100 100 100 100 100 100 100 100 97 94 94 97 97 97 97 94 94
6 13 19 6 10 10 13 3 0 0 3 3 10 13 10 26 71 74 65 55 77 97 97 100 100 100 100 100 100 100 100 100 100 100 100 100 100 100 100 100 100 94 94 94 94 94 90 94 94
6 13 19 19 13 16 19 3 3 0 6 13 10 13 16 52 87 81 74 52 77 97 100 100 100 100 100 100 100 100 100 100 100 100 100 100 100 100 100 100 100 94 94 94 94 90 94 90 90
6 10 19 13 6 6 0 3 0 3 6 13 16 13 10 48 81 81 71 52 77 97 100 100 100 100 100 100 100 100 100 100 100 100 100 100 100 100 100 100 100 100 94 94 90 90 94 87 87
6 6 3 3 0 0 0 0 3 13 23 16 23 19 10 26 65 74 71 90 87 97 100 100 100 100 100 100 100 100 100 100 100 100 100 100 100 100 100 100 100 100 100 90 90 90 90 87 90
6 0 3 3 0 0 0 3 6 16 29 42 39 23 16 10 29 61 84 94 100 100 100 100 100 100 100 100 100 100 100 100 100 100 100 100 100 100 100 100 100 100 100 97 97 97 100 100 100
0 0 0 0 0 0 0 3 6 32 58 58 48 42 29 19 42 71 94 94 97 100 100 100 100 100 100 100 100 100 100 100 100 100 100 100 100 100 100 100 100 100 100 100 100 100 100 100 100
0 0 0 0 0 0 0 0 10 26 42 48 45 35 39 39 42 74 81 84 87 90 100 100 100 100 100 100 100 100 100 100 100 97 97 97 90 84 97 94 100 97 97 97 97 100 100 100 97
0 0 0 0 0 0 0 3 16 26 39 48 39 48 42 39 42 61 77 81 90 87 87 97 97 97 97 97 97 97 97 94 94 94 94 90 87 84 94 87 87 94 97 97 97 97 97 97 90
0 0 0 0 0 0 0 6 23 35 52 58 52 58 52 52 42 52 68 77 81 87 90 90 94 97 97 97 97 97 97 94 94 94 94 94 87 81 71 68 74 81 81 90 87 87 87 84 84
0 0 0 0 0 3 10 16 32 58 61 61 68 71 68 71 65 61 58 65 71 77 81 81 90 94 94 94 94 94 90 87 84 81 84 84 77 68 61 52 55 58 65 58 61 58 55 68 74
0 0 0 0 3 3 16 29 48 71 71 71 71 68 68 71 68 61 48 52 55 61 77 87 87 87 84 87 87 81 81 74 65 65 65 58 55 52 39 23 23 23 29 45 48 45 45 45 45
0 0 0 0 0 0 10 29 55 65 65 71 68 74 71 71 77 61 55 52 61 58 61 68 77 71 71 68 71 71 65 61 45 39 32 29 29 23 26 19 19 13 13 10 13 13 19 16 16
0 0 0 0 0 0 3 26 48 58 65 61 61 65 71 71 65 61 58 65 61 52 55 58 68 52 52 55 48 48 35 35 26 29 26 32 26 13 13 13 13 13 10 6 6 3 3 3 3
0 0 0 0 0 10 6 16 32 35 52 55 55 61 58 58 65 58 61 55 42 45 45 39 39 35 42 48 45 42 35 32 26 29 19 13 19 13 13 6 3 3 3 3 3 3 3 3 3
0 0 0 0 0 10 19 26 29 42 42 39 48 55 61 52 48 52 61 55 42 26 29 35 35 35 29 26 26 26 26 23 19 13 13 16 13 10 3 0 0 0 0 0 0 0 0 0 0
0 0 0 0 6 10 3 10 19 23 32 29 45 48 39 48 48 45 48 61 42 35 32 19 19 19 16 19 23 16 16 6 6 6 10 10 6 6 6 3 3 0 0 0 0 0 0 0 0
0 0 0 3 3 0 0 6 3 10 16 19 29 39 35 32 35 42 39 32 23 19 19 16 19 13 13 16 16 6 10 3 3 3 3 0 3 3 3 3 0 0 0 0 0 0 0 0 0
0 0 0 0 0 0 0 0 6 3 10 26 29 29 26 23 29 32 26 26 23 23 19 19 16 13 10 10 3 0 0 0 0 0 0 0 0 0 0 0 0 0 0 0 0 0 0 0 0
0 0 0 0 0 0 0 0 0 0 0 10 23 19 19 23 23 26 23 26 13 10 6 10 6 6 6 6 6 3 3 3 0 0 0 0 0 0 0 0 0 0 3 3 0 0 0 0 0
0 0 0 0 0 0 0 0 0 0 0 0 3 13 16 16 13 13 13 10 3 3 6 6 6 3 6 3 3 3 3 0 0 0 0 0 0 0 0 0 0 0 0 0 0 0 0 0 0
0 0 0 0 0 0 0 0 0 0 0 0 3 10 6 3 0 3 3 3 3 3 3 3 3 3 3 3 3 0 0 0 0 0 0 0 0 0 0 0 0 0 0 0 0 0 0 0 0
0 0 0 0 0 0 0 0 0 0 0 0 0 0 0 0 3 3 0 0 0 3 3 3 3 3 3 3 0 0 0 0 0 0 0 0 0 0 0 0 0 0 0 0 0 0 0 0 0
0 0 0 0 0 0 0 0 0 0 0 0 0 0 0 0 0 3 0 3 3 0 0 0 3 0 0 0 0 0 0 0 0 0 0 0 0 0 0 0 0 0 0 0 0 0 0 0 0
0 0 0 0 0 0 0 0 0 0 0 0 0 0 0 0 0 3 3 3 0 0 0 0 0 0 0 0 0 0 0 0 0 0 0 0 0 0 0 0 0 0 0 0 0 0 0 0 0
0 0 0 0 0 0 0 0 0 0 0 0 0 0 0 0 3 0 3 3 0 0 0 0 0 0 0 0 0 0 0 0 0 0 0 0 0 0 0 0 0 0 0 0 0 0 0 0 0
0 0 0 0 0 0 0 0 0 0 0 0 0 0 0 0 0 0 0 0 0 0 0 0 0 0 0 0 0 0 0 0 0 0 0 0 0 0 0 0 0 0 0 0 0 0 0 0 0
0 0 0 0 0 0 0 0 0 0 0 0 0 0 0 0 0 0 0 0 0 0 0 0 0 0 0 0 0 0 0 0 0 0 0 0 0 0 0 0 0 0 0 0 0 0 0 0 0

GEFSSGP_con_cape1000_090.txt.gz
Probability
61 29 16 13 3 0 0 0 6 3 0 0 10 29 45 61 35 3 3 32 55 100 100 100 100 100 100 100 100 100 100 100 100 100 100 100 100 100 100 100 100 100 100 94 97 100 97 97 100
26 16 16 10 3 0 0 0 3 3 0 0 3 10 48 71 58 26 26 61 90 100 100 100 100 100 100 100 100 100 100 100 100 100 100 100 100 100 100 100 100 100 100 97 97 97 97 94 97
16 16 10 3 6 0 0 0 3 0 0 0 3 13 45 77 68 32 32 87 100 100 100 100 100 100 100 100 100 100 100 100 100 100 100 100 100 100 100 100 100 100 97 97 97 97 97 94 94
10 6 6 10 3 6 10 3 0 0 3 3 6 10 29 77 74 45 74 100 100 100 100 100 100 100 100 100 100 100 100 100 100 100 100 100 100 100 100 100 100 100 97 97 97 97 97 97 90
3 6 6 0 0 6 6 3 0 0 6 3 3 13 45 94 77 74 94 100 100 100 100 100 100 100 100 100 100 100 100 100 100 100 100 100 100 100 100 100 97 97 97 97 97 97 90 94 94
3 3 3 0 0 6 3 3 6 3 19 16 13 16 61 84 81 81 87 100 100 100 100 100 100 100 100 100 100 100 100 100 100 100 100 100 100 100 100 100 97 97 97 97 97 97 94 94 94
3 3 3 3 0 3 0 3 6 16 26 29 16 32 74 81 77 84 87 100 100 100 100 100 100 100 100 100 100 100 100 100 100 100 100 100 100 100 100 100 100 100 97 97 97 97 94 94 94
3 0 0 0 0 0 0 6 6 16 35 48 29 32 71 90 77 87 90 90 97 97 97 97 97 100 100 100 100 100 100 100 100 100 100 100 100 100 100 100 100 100 100 100 100 100 90 94 97
0 0 0 0 0 0 0 6 6 19 45 55 45 45 74 84 77 81 90 90 90 94 94 94 97 97 97 100 100 100 100 100 100 100 100 100 100 100 100 100 100 97 97 100 97 97 97 97 97
0 0 0 0 0 0 0 6 10 26 39 39 61 77 87 90 87 74 81 84 84 90 90 94 97 97 97 100 100 100 100 100 100 94 94 94 97 97 97 97 100 100 97 97 97 97 97 97 97
0 0 0 0 0 0 0 3 23 35 48 39 61 74 87 84 84 74 65 61 81 77 84 84 94 94 94 94 94 97 94 94 94 94 94 94 84 84 94 90 87 84 90 94 94 94 94 94 94
0 0 0 0 0 0 0 23 45 58 55 65 68 74 77 77 77 77 65 58 65 58 74 77 84 87 87 87 87 94 87 87 87 87 87 87 84 74 74 65 74 71 77 81 81 81 81 77 87
0 0 3 6 6 16 19 32 48 58 65 71 71 71 74 77 77 71 65 68 61 65 77 77 84 84 84 81 87 77 71 77 81 77 68 74 74 71 61 61 52 55 58 68 74 71 65 61 65
0 0 0 3 13 16 35 42 45 55 65 65 68 68 52 55 55 58 65 61 68 65 52 65 65 71 74 65 52 52 48 45 52 52 48 55 55 52 55 35 19 16 19 26 32 45 48 42 48
0 0 0 3 0 16 35 55 58 52 61 58 58 58 45 39 32 39 42 35 39 42 45 58 58 42 45 45 48 42 32 29 26 23 23 32 23 23 19 16 16 13 13 6 10 13 10 23 16
0 0 0 0 6 6 26 52 52 55 58 52 48 48 45 39 42 42 42 39 29 32 32 42 39 29 23 26 19 23 19 19 10 10 10 6 10 13 13 13 10 3 3 6 6 0 3 6 10
0 0 0 0 6 10 19 35 52 39 39 42 42 39 48 42 39 45 39 29 23 16 23 19 19 13 6 6 3 3 0 3 6 3 3 0 3 0 0 3 3 3 0 3 3 3 0 0 0
0 0 0 3 10 19 26 32 29 26 35 29 32 32 42 42 39 39 42 29 16 13 10 3 3 10 6 3 3 3 0 0 0 0 0 0 0 0 0 0 0 0 0 0 0 0 0 0 0
0 3 3 3 6 16 19 19 19 16 16 19 16 26 35 35 23 32 32 26 23 13 6 3 3 3 3 6 3 3 0 0 0 0 0 0 0 0 0 0 0 0 0 0 0 0 0 0 0
0 3 0 0 3 6 0 3 6 6 10 3 10 16 23 29 26 32 26 23 16 10 3 3 3 3 3 0 0 0 0 0 0 0 0 0 0 0 0 0 0 0 0 0 0 0 0 0 0
0 0 0 0 0 0 0 0 0 0 6 6 3 3 10 19 16 19 16 10 10 10 3 3 3 3 0 0 0 0 0 0 0 0 0 0 0 0 0 0 0 0 0 0 0 0 0 0 0
0 0 0 0 0 0 0 0 0 0 0 0 3 3 6 3 6 3 0 6 6 6 3 0 0 0 0 0 0 0 0 0 0 0 0 0 0 0 0 0 0 0 0 0 0 0 0 0 0
0 0 0 0 0 0 0 0 0 0 0 0 0 0 0 3 3 0 0 3 0 0 0 0 0 0 0 0 0 0 0 0 0 0 0 0 0 0 0 0 0 0 0 0 0 0 0 0 0
0 0 0 0 0 0 0 0 0 0 0 0 0 0 0 0 3 0 0 0 0 0 0 0 0 0 0 0 0 0 0 0 0 0 0 0 0 0 0 0 0 0 0 0 0 0 0 0 0
0 0 0 0 0 0 0 0 0 0 0 0 0 0 0 0 0 0 0 0 0 0 0 0 0 0 0 0 0 0 0 0 0 0 0 0 0 0 0 0 0 0 0 0 0 0 0 0 0
0 0 0 0 0 0 0 0 0 0 0 0 0 0 0 0 0 0 0 0 0 0 0 0 0 0 0 0 0 0 0 0 0 0 0 0 0 0 0 0 0 0 0 0 0 0 0 0 0
0 0 0 0 0 0 0 0 0 0 0 0 0 0 0 0 0 0 0 0 0 0 0 0 0 0 0 0 0 0 0 0 0 0 0 0 0 0 0 0 0 0 0 0 0 0 0 0 0
0 0 0 0 0 0 0 0 0 0 0 0 0 0 0 0 0 0 0 0 0 0 0 0 0 0 0 0 0 0 0 0 0 0 0 0 0 0 0 0 0 0 0 0 0 0 0 0 0
0 0 0 0 0 0 0 0 0 0 0 0 0 0 0 0 0 0 0 0 0 0 0 0 0 0 0 0 0 0 0 0 0 0 0 0 0 0 0 0 0 0 0 0 0 0 0 0 0
0 0 0 0 0 0 0 0 0 0 0 0 0 0 0 0 0 0 0 0 0 0 0 0 0 0 0 0 0 0 0 0 0 0 0 0 0 0 0 0 0 0 0 0 0 0 0 0 0

GEFSSGP_con_cape1000_096.txt.gz
Probability
58 45 29 45 71 42 0 0 0 0 3 10 16 29 39 55 65 94 97 97 87 97 100 100 100 100 100 100 100 100 100 100 100 100 100 100 100 100 100 100 100 97 100 100 97 97 94 100 100
39 29 39 58 55 3 0 0 0 0 0 6 16 29 45 74 90 87 97 87 97 100 100 100 100 100 100 100 100 100 100 100 100 100 100 100 100 100 100 100 100 100 100 90 90 94 94 97 100
26 26 42 42 19 3 0 3 0 0 6 6 35 55 77 90 94 87 87 90 97 100 100 100 100 100 100 100 100 100 100 100 100 100 100 100 100 100 100 100 100 100 97 90 84 87 97 90 97
10 26 32 32 13 6 3 3 6 3 13 26 42 68 87 84 84 87 97 94 97 100 100 100 100 100 100 100 100 100 100 100 100 100 100 100 100 100 100 100 100 100 97 90 87 84 97 90 97
19 19 13 10 10 6 0 3 10 19 26 45 42 71 87 97 97 97 100 97 97 94 100 100 100 100 100 100 100 100 100 100 100 100 100 100 100 100 100 100 97 97 94 90 87 87 87 94 87
3 3 0 0 0 0 0 3 10 16 29 42 52 74 97 97 100 100 97 97 94 94 100 100 100 100 100 100 100 100 100 100 100 100 100 100 100 100 100 97 94 94 94 90 90 87 90 87 90
3 0 0 0 0 0 0 3 10 16 35 52 52 77 97 97 100 100 100 97 90 94 100 100 100 100 100 100 100 100 100 100 100 100 100 100 100 100 100 100 100 94 94 94 90 90 90 90 94
0 0 0 0 0 0 0 0 10 19 42 61 71 77 97 100 100 100 100 100 97 97 100 100 100 100 100 100 100 100 100 100 100 100 100 100 100 100 100 100 100 100 100 97 97 94 94 94 90
0 0 0 0 0 0 0 0 10 23 52 71 81 90 97 100 100 100 100 100 100 97 100 100 100 100 100 100 100 100 100 100 100 100 100 100 100 100 100 100 97 100 97 97 100 97 97 97 97
0 0 0 0 0 0 0 3 10 23 48 65 84 97 100 100 97 97 100 97 97 97 97 100 97 97 97 97 94 100 100 100 100 100 100 100 100 100 94 94 94 94 97 97 97 97 97 97 84
0 0 0 0 0 0 0 6 26 23 48 74 87 97 100 100 94 94 97 94 100 100 100 94 97 97 94 97 100 100 100 100 97 97 97 100 100 100 94 94 94 90 94 97 94 97 97 94 90
0 0 3 6 3 3 6 23 42 61 68 77 84 100 97 90 94 97 100 100 100 100 97 87 90 97 97 97 100 100 97 94 94 90 94 97 97 97 90 90 90 87 90 94 90 100 87 94 90
0 0 6 6 16 23 32 42 55 68 77 81 94 100 97 97 97 97 100 97 97 97 90 87 90 90 90 97 97 90 94 87 90 94 84 84 81 84 81 84 84 87 87 84 81 84 84 84 77
0 0 10 10 19 29 35 52 71 81 84 87 87 90 90 87 94 87 97 94 87 87 84 84 84 90 87 87 84 81 81 84 84 81 74 81 77 77 81 74 84 81 81 77 84 74 81 77 77
0 0 3 3 26 29 32 55 77 84 84 87 90 87 84 84 87 84 84 87 84 84 84 84 81 71 77 77 74 71 74 74 58 65 65 61 58 61 65 61 58 55 58 65 68 48 68 68 58
0 0 0 3 16 26 19 42 77 74 84 81 84 77 77 77 77 71 77 77 77 77 81 77 61 65 68 71 65 52 45 42 42 39 39 42 45 52 48 39 42 48 45 39 42 45 42 45 65
0 0 0 3 13 13 19 48 74 71 68 74 68 68 74 71 74 65 65 65 65 68 65 58 65 65 61 55 55 48 48 39 26 23 23 26 26 29 23 23 32 35 29 35 29 29 35 39 52
0 0 0 0 10 16 29 48 77 65 65 58 61 61 65 61 55 61 65 68 68 77 61 55 61 61 58 48 55 45 32 19 13 16 19 26 19 16 13 10 13 10 16 23 23 26 39 35 42
0 0 3 13 19 16 35 52 55 48 45 48 61 58 48 48 52 55 55 52 61 61 58 65 58 55 58 55 45 32 19 16 16 13 19 19 10 3 6 3 3 10 10 6 13 13 13 16 19
0 3 13 13 16 16 19 35 39 42 29 32 48 55 32 32 32 42 42 42 52 55 58 58 58 52 48 48 48 32 16 13 13 10 10 10 6 3 3 6 6 6 6 13 10 10 6 6 6
0 0 13 10 13 13 16 23 29 29 29 23 26 42 35 32 39 35 39 42 42 48 45 29 55 42 42 35 19 26 26 10 10 10 10 10 6 3 3 3 3 3 3 6 6 6 3 3 6
0 3 6 6 6 6 6 10 26 26 23 23 29 26 19 23 23 19 23 26 39 42 35 45 52 42 35 32 23 13 6 3 0 0 3 3 0 0 0 3 3 3 3 3 3 0 3 3 3
0 0 6 10 6 0 3 0 6 13 13 10 19 16 10 6 0 10 10 26 26 26 35 48 55 48 45 29 26 23 6 3 3 3 0 0 0 0 0 3 3 6 3 0 0 0 0 3 3
0 0 0 0 0 0 0 0 0 6 6 10 10 6 10 6 6 6 16 32 32 32 29 32 52 52 48 32 16 13 6 3 3 3 3 0 0 0 0 0 0 3 0 0 0 0 0 0 0
0 0 0 0 0 0 3 0 3 0 0 3 3 3 6 10 6 13 16 35 39 32 29 29 48 39 32 23 16 13 6 10 10 3 0 0 0 0 3 0 0 0 0 0 0 0 0 0 0
0 0 0 0 0 0 3 0 3 0 3 3 0 0 0 3 10 16 19 26 26 19 23 19 26 29 23 23 26 10 6 10 0 0 0 0 0 0 0 0 0 0 0 0 0 0 0 0 0
3 3 0 0 0 0 0 0 3 0 0 3 0 0 0 3 6 10 10 3 6 10 16 19 19 23 16 16 6 0 0 0 0 0 0 0 0 0 0 0 0 0 0 0 0 0 0 0 0
0 0 0 0 0 0 0 0 0 3 0 3 3 0 0 0 0 3 3 6 10 10 13 13 13 10 6 3 3 3 3 0 0 0 0 0 0 0 0 0 0 0 0 0 0 0 0 0 0
0 0 0 0 0 0 0 0 0 3 3 0 0 0 0 0 0 3 6 6 3 3 6 6 6 6 3 3 3 3 0 0 0 0 0 0 0 0 0 0 0 0 0 0 0 0 0 0 0
0 0 0 0 0 0 0 0 0 0 0 0 0 0 0 0 0 0 6 3 3 3 3 6 6 3 3 0 0 0 0 0 0 0 0 0 0 0 0 0 0 0 0 0 0 0 0 0 0